Welcome to the New NWS' Forecast!
Most changes are behind the scenes, but click here for differences you might notice.

Regional Weather Roundup (RWR)

Issued by Albuquerque, NM (ABQ)

                            
588 
NZUS01 KABQ 201301
RWRABQ
NEW MEXICO REGIONAL WEATHER ROUNDUP
NATIONAL WEATHER SERVICE  ALBUQUERQUE NM
700 AM MDT MON AUG 20 2018


-----NORTHERN NEW MEXICO AND NEARBY AREAS-----

  
CITY           SKY/WX    TMP DP  RH WIND       PRES   REMARKS
ALBUQUERQUE    FAIR      66  52  60 E17       30.26R                  
BELEN          FAIR      64  53  65 N5        30.25R                  
SOCORRO        FAIR      65  57  74 CALM      30.23R                  

CITY           SKY/WX    TMP DP  RH WIND       PRES   REMARKS
SANTA FE       CLEAR     59  54  83 S9        30.34R                  
LOS ALAMOS     CLOUDY    59  50  71 S13       30.38R                  
TAOS           CLOUDY    54  46  74 N5        30.39R                  
FARMINGTON     CLEAR     55  32  41 E9        30.21R                  
GRANTS         CLEAR     49  39  69 N5        30.33R                  
GALLUP         PTCLDY    44  31  60 E5        30.31R                  
FLAGSTAFF      CLEAR     53  50  89 CALM      30.31R                  
DURANGO        PTCLDY    47  25  42 NE6       30.30R                  

CITY           SKY/WX    TMP DP  RH WIND       PRES   REMARKS
ALAMOSA        CLOUDY    50  43  77 CALM      30.38R                  
DENVER         CLEAR     48  45  89 SE3       30.31R FOG              
CLAYTON        CLEAR     58  50  75 N15       30.27R                  
RATON          PTCLDY    56  49  77 NE3       30.33R                  
LAS VEGAS      MOCLDY    55  53  93 SW6       30.38R                  
CLINES CORNERS MOCLDY    55  49  80 SE9       30.40R                  
SANTA ROSA     PTSUNNY   62  54  74 CALM      30.29R                  
TUCUMCARI      MOCLDY    63  59  87 CALM      30.24R                  
CLOVIS (AFB)   MOCLDY    62  62 100 NE10      30.27R                  
CLOVIS         PTCLDY    60  55  83 NE7       30.28R                  
AMARILLO       MOCLDY    63  54  72 NW14      30.22R                  

-----SOUTHERN NEW MEXICO AND NEARBY AREAS-----

  
CITY           SKY/WX    TMP DP  RH WIND       PRES   REMARKS
T OR C         CLEAR     72  56  57 N13G23    30.17R                  
DEMING         PTCLDY    66  49  54 SE3       30.10                   
TUCSON         PTCLDY    82  65  56 SE3       30.01R                  
EL PASO        MOCLDY    78  55  44 N5        30.09R                  
LAS CRUCES     PTCLDY    73  55  52 SE6       30.14R                  

CITY           SKY/WX    TMP DP  RH WIND       PRES   REMARKS
ALAMOGORDO     CLEAR     69  51  53 CALM        N/A                   
RUIDOSO          N/A     57  54  88 SE7       30.41R                  
ROSWELL        MOCLDY    68  59  73 N8        30.21R                  
CARLSBAD       MOCLDY    67  61  81 MISG      30.18R THUNDER          
HOBBS          TSTM      66  63  88 CALM      30.20R